GW5291 Weather Reports


time (UTC)temp
C
wind
direction
speed
KPH
gust
KPH
rain 1hr
cm
rain 24hr
cm
rain mn
cm
humidity
%
barometer
mb
20260509102501 20 51 0.0 1.6 0.00 0.00 0.00 90 1009.6
20260509101958 20 89 0.0 1.6 0.00 0.00 0.00 90 1009.5
20260509101454 20 86 0.0 1.6 0.00 0.00 0.00 90 1009.7
20260509100952 21 71 1.6 1.6 0.00 0.00 0.00 90 1009.6
20260509100449 21 76 1.6 3.2 0.00 0.00 0.00 90 1009.6
20260509095945 21 89 0.0 3.2 0.00 0.00 0.00 90 1009.7
20260509095442 21 108 1.6 4.8 0.00 0.00 0.00 89 1009.1
20260509094939 21 73 3.2 3.2 0.00 0.00 0.00 89 1009.2
20260509094436 21 86 3.2 3.2 0.00 0.00 0.00 89 1009.1
20260509093933 21 102 3.2 3.2 0.00 0.00 0.00 89 1009.3
20260509093431 21 76 1.6 4.8 0.00 0.00 0.00 88 1009.2
20260509092929 21 76 3.2 4.8 0.00 0.00 0.00 88 1009.2
20260509092426 21 80 3.2 6.4 0.00 0.00 0.00 87 1009.2
20260509091925 21 61 3.2 6.4 0.00 0.00 0.00 87 1009.4
20260509091421 21 89 0.0 0.0 0.00 0.00 0.00 87 1009.5
20260509090918 21 117 0.0 1.6 0.00 0.00 0.00 87 1009.3
20260509090416 21 80 1.6 3.2 0.00 0.00 0.00 87 1009.5
20260509085913 21 66 0.0 3.2 0.00 0.00 0.00 88 1009.6
20260509085410 21 88 0.0 3.2 0.00 0.00 0.00 88 1009.5
20260509084906 21 29 3.2 8.0 0.00 0.00 0.00 88 1009.2
20260509084403 21 6 0.0 3.2 0.00 0.00 0.00 87 1008.8
20260509083901 21 98 1.6 8.0 0.00 0.00 0.00 87 1008.1
20260509083357 21 195 6.4 6.4 0.00 0.00 0.00 87 1007.7
20260509082854 21 55 3.2 4.8 0.00 0.00 0.00 87 1007.8
20260509082351 21 128 3.2 6.4 0.00 0.00 0.00 87 1008.1
20260509081848 21 136 3.2 4.8 0.00 0.00 0.00 87 1008.2
20260509081345 21 121 3.2 6.4 0.00 0.00 0.00 88 1008.2
20260509080843 21 179 4.8 6.4 0.00 0.00 0.00 88 1008.2
20260509080341 21 146 3.2 6.4 0.00 0.00 0.00 88 1008.4
20260509075839 21 199 1.6 4.8 0.00 0.00 0.00 88 1008.6
20260509075336 21 175 0.0 9.7 0.00 0.00 0.00 88 1009.1
20260509074833 21 185 4.8 6.4 0.00 0.00 0.00 88 1009.3
20260509074331 21 196 0.0 9.7 0.00 0.00 0.00 88 1009.5
20260509073826 21 253 1.6 6.4 0.00 0.00 0.00 88 1009.8
20260509073323 21 198 0.0 4.8 0.00 0.00 0.00 87 1009.8
20260509072820 21 169 1.6 6.4 0.00 0.00 0.00 87 1010.1
20260509072316 21 183 0.0 6.4 0.00 0.00 0.00 87 1010.6
20260509071813 21 190 4.8 4.8 0.00 0.00 0.00 88 1010.5
20260509071310 21 190 3.2 6.4 0.00 0.00 0.00 87 1010.8
20260509070807 21 128 0.0 4.8 0.00 0.00 0.00 87 1010.8
20260509070304 21 199 3.2 4.8 0.00 0.00 0.00 87 1010.7
20260509065800 21 187 4.8 4.8 0.00 0.00 0.00 87 1010.9
20260509065256 21 197 3.2 4.8 0.00 0.00 0.00 87 1011.0
20260509064752 21 220 1.6 6.4 0.00 0.00 0.00 87 1010.8
20260509064250 21 187 0.0 4.8 0.00 0.00 0.00 87 1011.4
20260509063748 21 205 3.2 3.2 0.00 0.00 0.00 87 1011.1
20260509063243 21 196 3.2 6.4 0.00 0.00 0.00 87 1011.5
20260509062741 21 177 3.2 3.2 0.00 0.00 0.00 87 1011.2
20260509062238 21 7 1.6 3.2 0.00 0.00 0.00 87 1011.1
20260509061735 21 245 1.6 6.4 0.00 0.00 0.00 87 1011.1
20260509061233 21 173 1.6 4.8 0.00 0.00 0.00 87 1011.1
20260509060730 21 201 0.0 1.6 0.00 0.00 0.00 87 1010.9
20260509060226 21 189 0.0 3.2 0.00 0.00 0.00 86 1010.9
20260509055722 21 183 1.6 6.4 0.00 0.00 0.00 86 1010.6
20260509055218 21 220 3.2 8.0 0.00 0.00 0.00 85 1010.8
20260509054715 21 214 3.2 4.8 0.00 0.00 0.00 85 1010.9
20260509054212 21 211 3.2 6.4 0.00 0.00 0.00 84 1010.8
20260509053710 21 162 0.0 3.2 0.00 0.00 0.00 84 1011.1
20260509053207 21 207 3.2 3.2 0.00 0.00 0.00 83 1011.4
20260509052705 21 193 0.0 3.2 0.00 0.00 0.00 83 1011.5
20260509052202 21 167 0.0 3.2 0.00 0.00 0.00 82 1011.6
20260509051700 21 37 0.0 1.6 0.00 0.00 0.00 82 1011.8
20260509051157 22 175 0.0 3.2 0.00 0.00 0.00 81 1011.6
20260509050654 22 184 0.0 0.0 0.00 0.00 0.00 81 1012.1
20260509050150 22 142 0.0 3.2 0.00 0.00 0.00 81 1012.5
20260509045648 22 47 1.6 3.2 0.00 0.58 0.58 82 1012.8
20260509045145 22 62 0.0 3.2 0.00 0.58 0.58 82 1012.9
20260509044642 22 347 0.0 0.0 0.00 0.58 0.58 81 1012.3
20260509044139 22 89 0.0 1.6 0.00 0.58 0.58 80 1011.4
20260509043635 22 142 0.0 3.2 0.00 0.58 0.58 80 1011.2
20260509043131 22 195 3.2 3.2 0.00 0.58 0.58 79 1011.1
20260509042628 22 166 0.0 6.4 0.00 0.58 0.58 79 1010.9
20260509042124 22 188 0.0 6.4 0.00 0.58 0.58 79 1010.6
20260509041621 22 189 0.0 4.8 0.00 0.58 0.58 78 1010.8
20260509041118 22 248 0.0 4.8 0.00 0.58 0.58 78 1010.8
20260509040617 22 171 0.0 3.2 0.00 0.58 0.58 78 1011.1
20260509040113 22 135 1.6 3.2 0.00 0.58 0.58 78 1011.4
20260509035610 22 103 0.0 4.8 0.00 0.58 0.58 78 1010.9
20260509035106 22 79 0.0 4.8 0.00 0.58 0.58 78 1010.9
20260509034604 22 145 1.6 8.0 0.00 0.58 0.58 77 1010.4
20260509034101 22 93 1.6 4.8 0.00 0.58 0.58 77 1010.4
20260509033558 22 135 1.6 4.8 0.00 0.58 0.58 77 1010.3
20260509033055 22 222 3.2 4.8 0.00 0.58 0.58 77 1010.1
20260509032553 22 155 1.6 4.8 0.00 0.58 0.58 76 1010.6
20260509032049 22 174 0.0 0.0 0.00 0.58 0.58 76 1011.3
20260509031547 22 37 0.0 0.0 0.00 0.58 0.58 76 1011.6
20260509031044 22 37 1.6 1.6 0.00 0.58 0.58 76 1011.8
20260509030543 22 44 0.0 3.2 0.00 0.58 0.58 76 1011.5
20260509030039 22 39 1.6 3.2 0.00 0.58 0.58 77 1011.6
20260509025535 22 64 0.0 1.6 0.00 0.58 0.58 77 1011.2
20260509025030 22 50 0.0 0.0 0.00 0.58 0.58 77 1011.1
20260509024526 22 66 0.0 0.0 0.00 0.58 0.58 77 1010.9
20260509024023 22 89 1.6 1.6 0.00 0.58 0.58 77 1010.7
20260509023521 22 159 1.6 4.8 0.00 0.58 0.58 77 1010.6
20260509023017 22 173 0.0 3.2 0.00 0.58 0.58 77 1010.5
20260509022514 22 116 0.0 3.2 0.00 0.58 0.58 76 1010.2
20260509022012 22 162 0.0 3.2 0.00 0.58 0.58 76 1010.0
20260509021509 22 161 3.2 6.4 0.00 0.58 0.58 76 1009.8
20260509021006 22 149 3.2 6.4 0.00 0.58 0.58 76 1009.4
20260509020504 22 159 0.0 6.4 0.00 0.58 0.58 76 1009.4
20260509020001 22 135 0.0 3.2 0.00 0.58 0.58 76 1009.4
20260509015459 22 164 0.0 3.2 0.00 0.58 0.58 75 1009.4
20260509014956 22 138 1.6 3.2 0.00 0.58 0.58 75 1009.3
20260509014453 22 181 3.2 4.8 0.00 0.58 0.58 74 1009.6
20260509013949 22 160 0.0 3.2 0.00 0.58 0.58 74 1009.3
20260509013446 22 217 3.2 3.2 0.00 0.58 0.58 73 1009.1
20260509012942 23 180 0.0 3.2 0.00 0.58 0.58 72 1009.4
20260509012438 23 209 1.6 8.0 0.00 0.58 0.58 72 1009.4
20260509011935 23 228 0.0 8.0 0.00 0.58 0.58 72 1009.6
20260509011433 23 198 3.2 4.8 0.00 0.58 0.58 71 1009.4
20260509010931 23 181 0.0 6.4 0.00 0.58 0.58 71 1009.5
20260509010428 23 220 1.6 6.4 0.00 0.58 0.58 71 1009.6
20260509005925 23 203 1.6 6.4 0.00 0.58 0.58 71 1009.5
20260509005423 23 258 0.0 3.2 0.00 0.58 0.58 71 1009.5
20260509004922 23 183 3.2 4.8 0.00 0.58 0.58 70 1009.5
20260509004419 23 193 6.4 8.0 0.00 0.58 0.58 70 1009.2
20260509003917 23 203 3.2 8.0 0.00 0.58 0.58 70 1009.2
20260509003414 23 159 3.2 6.4 0.00 0.58 0.58 69 1009.1
20260509002911 23 199 0.0 8.0 0.00 0.58 0.58 69 1009.0
20260509002409 23 184 3.2 9.7 0.00 0.58 0.58 69 1009.1
20260509001906 24 286 0.0 12.9 0.00 0.58 0.58 68 1009.1
20260509001402 24 189 1.6 6.4 0.00 0.58 0.58 68 1008.9
20260509000859 24 197 3.2 6.4 0.00 0.58 0.58 68 1008.8
20260509000357 24 139 1.6 4.8 0.00 0.58 0.58 67 1008.9
20260508235853 24 190 4.8 4.8 0.00 0.58 0.58 67 1009.2
20260508235350 24 157 0.0 9.7 0.00 0.58 0.58 67 1009.1
20260508234848 24 186 0.0 6.4 0.00 0.58 0.58 67 1009.1
20260508234344 24 175 1.6 8.0 0.00 0.58 0.58 67 1009.2
20260508233843 24 195 4.8 9.7 0.00 0.58 0.58 67 1009.3
20260508233341 24 163 1.6 8.0 0.00 0.58 0.58 67 1009.4
20260508232838 24 220 1.6 9.7 0.00 0.58 0.58 67 1009.4
20260508232334 25 224 9.7 11.3 0.00 0.58 0.58 66 1009.5
20260508231833 25 192 3.2 12.9 0.00 0.58 0.58 65 1009.4
20260508231328 25 220 3.2 9.7 0.00 0.58 0.58 64 1009.3
20260508230826 25 211 6.4 8.0 0.00 0.58 0.58 64 1009.2
20260508230322 25 232 1.6 9.7 0.00 0.58 0.58 64 1009.2
20260508225820 25 229 4.8 9.7 0.00 0.58 0.58 63 1009.5
20260508225316 25 186 6.4 12.9 0.00 0.58 0.58 63 1009.4
20260508224814 25 235 4.8 9.7 0.00 0.58 0.58 62 1009.3
20260508224311 25 186 3.2 4.8 0.00 0.58 0.58 63 1009.4
20260508223809 25 250 1.6 6.4 0.00 0.58 0.58 62 1009.4
20260508223306 26 252 1.6 4.8 0.00 0.58 0.58 62 1009.6
20260508222803 26 245 3.2 8.0 0.00 0.58 0.58 61 1009.5
20260508222300 25 245 3.2 8.0 0.00 0.58 0.58 62 1009.5
20260508221757 26 243 0.0 4.8 0.00 0.58 0.58 61 1009.5
20260508221253 26 246 1.6 8.0 0.00 0.58 0.58 61 1009.6
20260508220749 25 187 1.6 12.9 0.00 0.58 0.58 62 1009.4
20260508220246 25 201 4.8 9.7 0.00 0.58 0.58 61 1009.6
20260508215742 25 232 0.0 6.4 0.00 0.58 0.58 62 1009.5
20260508215239 25 214 6.4 9.7 0.00 0.58 0.58 60 1009.5
20260508214736 26 222 1.6 8.0 0.00 0.58 0.58 60 1009.4
20260508214233 26 215 6.4 9.7 0.00 0.58 0.58 60 1009.5
20260508213729 25 201 0.0 9.7 0.00 0.58 0.58 61 1009.8
20260508213226 26 210 9.7 11.3 0.00 0.58 0.58 59 1009.5
20260508212723 26 166 1.6 3.2 0.00 0.58 0.58 59 1009.6
20260508212219 26 146 1.6 4.8 0.00 0.58 0.58 58 1009.6
20260508210553 26 110 1.6 6.4 0.00 0.58 0.58 60 1009.9
20260508210051 26 110 1.6 6.4 0.00 0.58 0.58 60 1009.9
20260508205548 25 175 4.8 9.7 0.00 0.58 0.58 60 1010.3
20260508205044 25 221 4.8 11.3 0.00 0.58 0.58 61 1010.4
20260508204541 25 232 4.8 11.3 0.00 0.58 0.58 63 1010.6
20260508204036 24 201 6.4 12.9 0.00 0.58 0.58 65 1010.9
20260508203533 24 226 1.6 8.0 0.00 0.58 0.58 65 1011.2
20260508203029 24 221 1.6 8.0 0.00 0.58 0.58 65 1011.3
20260508202526 24 217 4.8 12.9 0.00 0.58 0.58 65 1011.3
20260508202023 24 331 3.2 9.7 0.00 0.58 0.58 65 1011.5
20260508201520 24 201 6.4 9.7 0.00 0.58 0.58 64 1011.4
20260508201016 25 235 6.4 19.3 0.00 0.58 0.58 63 1011.6
20260508200513 25 215 3.2 9.7 0.00 0.58 0.58 64 1011.6
20260508200009 25 204 1.6 9.7 0.00 0.58 0.58 65 1011.4
20260508195506 25 209 4.8 9.7 0.00 0.58 0.58 64 1011.6
20260508195001 25 217 3.2 9.7 0.00 0.58 0.58 63 1011.5
20260508194459 25 189 6.4 6.4 0.00 0.58 0.58 63 1011.5
20260508193956 25 221 3.2 8.0 0.00 0.58 0.58 61 1011.5
20260508193452 26 210 3.2 8.0 0.00 0.58 0.58 59 1011.6
20260508192949 26 190 4.8 9.7 0.00 0.58 0.58 58 1011.6
20260508192446 26 202 4.8 8.0 0.00 0.58 0.58 58 1011.7
20260508191943 26 198 3.2 8.0 0.00 0.58 0.58 59 1011.7
20260508191440 26 237 1.6 6.4 0.00 0.58 0.58 57 1011.6
20260508190937 26 238 1.6 6.4 0.00 0.58 0.58 57 1012.0
20260508190434 27 220 3.2 6.4 0.00 0.58 0.58 54 1012.0
20260508185930 27 237 4.8 6.4 0.00 0.58 0.58 55 1012.0
20260508185428 26 228 0.0 6.4 0.00 0.58 0.58 57 1012.0
20260508184925 26 223 3.2 4.8 0.00 0.58 0.58 56 1012.0
20260508184422 26 257 1.6 4.8 0.00 0.58 0.58 55 1012.0
20260508183919 26 192 1.6 3.2 0.00 0.58 0.58 57 1012.0
20260508183415 26 237 3.2 8.0 0.00 0.58 0.58 56 1012.0
20260508182910 26 208 3.2 4.8 0.00 0.58 0.58 57 1012.0
20260508182408 26 202 3.2 6.4 0.00 0.58 0.58 55 1012.1
20260508181903 25 252 1.6 6.4 0.00 0.58 0.58 58 1012.5
20260508181400 25 228 3.2 8.0 0.00 0.58 0.58 57 1012.6
20260508180857 25 218 3.2 9.7 0.00 0.58 0.58 59 1012.8
20260508180354 25 213 4.8 12.9 0.00 0.58 0.58 56 1012.8
20260508175850 25 215 0.0 12.9 0.00 0.58 0.58 58 1012.8
20260508175347 25 236 3.2 6.4 0.00 0.58 0.58 55 1012.9
20260508174845 25 225 4.8 4.8 0.00 0.58 0.58 56 1013.0
20260508174342 25 235 1.6 4.8 0.00 0.58 0.58 57 1013.1
20260508173839 25 157 0.0 3.2 0.00 0.58 0.58 57 1013.1
20260508173336 24 125 3.2 6.4 0.00 0.58 0.58 57 1013.2
20260508172832 24 205 4.8 6.4 0.00 0.58 0.58 56 1013.0
20260508172329 24 198 1.6 4.8 0.00 0.58 0.58 57 1013.2
20260508171826 23 186 0.0 6.4 0.00 0.58 0.58 60 1013.3
20260508171322 23 62 0.0 6.4 0.00 0.58 0.58 59 1013.5
20260508170819 23 144 3.2 6.4 0.00 0.58 0.58 58 1013.7
20260508170317 24 83 1.6 3.2 0.00 0.58 0.58 57 1013.8
20260508165813 23 183 1.6 9.7 0.00 0.58 0.58 58 1014.1
20260508165310 23 204 0.0 6.4 0.00 0.58 0.58 58 1014.0
20260508164806 22 261 0.0 6.4 0.00 0.58 0.58 59 1014.2
20260508164303 22 217 4.8 8.0 0.00 0.58 0.58 60 1014.5
20260508163801 22 201 1.6 8.0 0.00 0.58 0.58 62 1014.5
20260508163259 21 234 6.4 11.3 0.00 0.58 0.58 61 1014.7
20260508162754 21 218 8.0 9.7 0.00 0.58 0.58 61 1014.6
20260508162251 21 208 3.2 6.4 0.00 0.58 0.58 63 1014.5
20260508161748 21 178 3.2 6.4 0.00 0.58 0.58 63 1014.6
20260508161245 20 160 4.8 11.3 0.00 0.58 0.58 65 1014.7
20260508160743 20 267 3.2 11.3 0.00 0.58 0.58 65 1014.7
20260508160241 20 218 1.6 8.0 0.00 0.58 0.58 66 1014.7
20260508155737 20 197 3.2 8.0 0.00 0.58 0.58 66 1014.9
20260508155235 20 235 1.6 3.2 0.00 0.58 0.58 68 1015.0
20260508154731 20 160 3.2 6.4 0.00 0.58 0.58 70 1015.1
20260508154229 20 183 1.6 9.7 0.00 0.58 0.58 70 1015.0
20260508153726 19 197 0.0 3.2 0.00 0.58 0.58 73 1014.8
20260508153223 19 153 0.0 3.2 0.00 0.58 0.58 74 1015.2
20260508152719 19 156 0.0 6.4 0.00 0.58 0.58 74 1015.1
20260508152215 19 142 0.0 1.6 0.00 0.58 0.58 76 1015.5
20260508151712 18 227 0.0 3.2 0.00 0.58 0.58 74 1015.4
20260508151209 18 230 0.0 4.8 0.00 0.58 0.58 74 1015.7
20260508150705 19 160 0.0 4.8 0.00 0.58 0.58 75 1015.4
20260508150202 19 180 0.0 1.6 0.00 0.58 0.58 76 1015.4
20260508145658 19 112 0.0 1.6 0.00 0.58 0.58 77 1015.4
20260508145154 18 269 0.0 6.4 0.00 0.58 0.58 76 1015.3
20260508144652 18 143 1.6 8.0 0.00 0.58 0.58 78 1015.4
20260508144149 18 184 0.0 1.6 0.00 0.58 0.58 82 1015.4
20260508143647 18 138 3.2 3.2 0.00 0.58 0.58 81 1015.3
20260508143143 17 157 0.0 0.0 0.00 0.58 0.58 82 1015.8
20260508142640 17 136 0.0 3.2 0.00 0.58 0.58 81 1015.6
20260508142137 18 209 0.0 3.2 0.00 0.58 0.58 82 1015.9
20260508141633 17 157 0.0 1.6 0.00 0.58 0.58 81 1015.7
20260508141131 17 123 0.0 3.2 0.00 0.58 0.58 82 1015.7
20260508140628 17 160 0.0 3.2 0.00 0.58 0.58 85 1015.7
20260508140125 17 154 0.0 1.6 0.00 0.58 0.58 87 1015.6
20260508135620 17 164 0.0 1.6 0.00 0.58 0.58 87 1015.8
20260508135116 16 73 0.0 3.2 0.00 0.58 0.58 88 1015.8
20260508134613 17 97 0.0 3.2 0.00 0.58 0.58 89 1015.7
20260508134110 16 86 0.0 0.0 0.00 0.58 0.58 90 1015.5
20260508133607 16 66 0.0 3.2 0.00 0.58 0.58 91 1015.7
20260508133104 16 60 0.0 1.6 0.00 0.58 0.58 92 1015.7
20260508132602 16 87 0.0 1.6 0.00 0.58 0.58 93 1015.6
20260508132059 16 195 0.0 1.6 0.00 0.58 0.58 93 1015.7
20260508131554 16 190 0.0 3.2 0.00 0.58 0.58 94 1015.7
20260508131051 16 89 0.0 1.6 0.00 0.58 0.58 94 1015.6
20260508130548 16 57 0.0 0.0 0.00 0.58 0.58 94 1015.7
20260508130044 16 162 0.0 3.2 0.00 0.58 0.58 94 1015.8
20260508125540 16 230 0.0 1.6 0.00 0.58 0.58 94 1015.5
20260508125038 16 37 0.0 3.2 0.00 0.58 0.58 94 1015.3
20260508124536 16 141 1.6 3.2 0.00 0.58 0.58 94 1015.6
20260508124033 16 175 1.6 3.2 0.00 0.58 0.58 94 1015.5
20260508123531 15 55 0.0 1.6 0.00 0.58 0.58 94 1015.5
20260508123027 15 89 1.6 4.8 0.00 0.58 0.58 94 1015.4
20260508122524 15 89 1.6 3.2 0.00 0.58 0.58 94 1016.0
20260508122021 15 280 0.0 0.0 0.00 0.58 0.58 94 1016.7
20260508121520 15 339 0.0 0.0 0.00 0.58 0.58 94 1016.2
20260508121017 15 222 0.0 3.2 0.00 0.58 0.58 94 1015.8
20260508120514 15 127 0.0 3.2 0.00 0.58 0.58 93 1015.6
20260508120013 15 107 0.0 3.2 0.00 0.58 0.58 93 1015.7
20260508115510 15 89 0.0 1.6 0.00 0.58 0.58 93 1016.0
20260508115006 15 43 3.2 3.2 0.00 0.58 0.58 93 1016.1
20260508114503 15 22 0.0 3.2 0.00 0.58 0.58 93 1015.8
20260508113959 15 139 0.0 3.2 0.00 0.58 0.58 93 1015.7
20260508113457 15 115 1.6 3.2 0.05 0.58 0.58 93 1015.7
20260508112954 15 44 0.0 3.2 0.13 0.58 0.58 93 1015.8
20260508112451 15 55 0.0 3.2 0.18 0.58 0.58 93 1015.6
20260508111948 15 238 0.0 4.8 0.36 0.56 0.56 93 1015.6
20260508111445 15 89 0.0 1.6 0.23 0.56 0.56 92 1015.1
20260508110942 15 129 0.0 3.2 0.61 0.51 0.51 92 1015.6
20260508110440 15 125 1.6 6.4 0.61 0.51 0.51 92 1015.2
20260508105939 15 89 0.0 3.2 0.05 0.41 0.41 92 1015.1
20260508105436 15 171 1.6 4.8 0.13 0.41 0.41 91 1015.5
20260508104933 15 106 1.6 4.8 0.23 0.38 0.38 91 1015.1
20260508104431 16 158 0.0 3.2 0.05 0.36 0.36 91 1015.6
20260508103927 16 158 1.6 6.4 0.05 0.36 0.36 91 1016.1
20260508103424 16 154 0.0 3.2 0.13 0.36 0.36 90 1015.8
20260508102921 16 62 1.6 6.4 0.43 0.33 0.33 89 1015.7